Station CMTI2 - 9087044 - Calumet Harbor, IL Image indicating link to RSS feed of recent meteorological observations for station CMTI2


Conditions at CMTI2 as of
(12:54 am CDT)
0554 GMT on 04/15/2024:
     

Click on the graph icon in the table below to see a time series plot of the last five days of that observation.

5-day plot - Wind Direction Wind Direction (WDIR):NNW ( 330 deg true )
5-day plot - Wind Speed Wind Speed (WSPD): 6.0 kts
5-day plot - Wind Gust Wind Gust (GST): 9.9 kts
5-day plot - Atmospheric Pressure Atmospheric Pressure (PRES):29.78 in
5-day plot - Air Temperature Air Temperature (ATMP): 50.5 °F
5-day plot - Dew Point Dew Point (DEWP): 44.6 °F
5-day plot - Wind Chill Wind Chill (CHILL): 47.8 °F
5-day plot - Wind Speed at 10 Meters Wind Speed at 10 meters (WSPD10M): 5.8 kts
5-day plot - Wind Speed at 20 Meters Wind Speed at 20 meters (WSPD20M): 5.8 kts
5-day plot -  Wind Speed, Wind Gust and Atmospheric Pressure Combined plot of Wind Speed, Gust, and Air Pressure
NOS Water Level Observation Network Water Level
Previous observations
TIME
(CDT)
5-day plot - Wind Direction
WDIR
 
5-day plot - Wind Speed
WSPD
kts
5-day plot - Wind Gust
GST
kts
5-day plot - Wave Height
WVHT
ft
5-day plot - Dominant Wave Period
DPD
sec
5-day plot - Average Wave Period
APD
sec
5-day plot - Mean Wave Direction
MWD
 
5-day plot - Atmospheric Pressure
PRES
in
5-day plot - Pressure Tendency
PTDY
in
5-day plot - Air Temperature
ATMP
°F
5-day plot - Water Temperature
WTMP
°F
5-day plot - Dew Point
DEWP
°F
5-day plot - Salinity
SAL
psu
5-day plot - Visibility
VIS
nmi
5-day plot - Tide (above MLLW)
TIDE
ft
2024-04-15 12:48 amNNW 6.0 8.9----29.78- 50.7- 44.6---
2024-04-15 12:42 amNNW 7.0 9.9----29.78- 50.5- 44.4---
2024-04-15 12:36 amNNW 6.0 9.9----29.78- 50.5- 44.1---
2024-04-15 12:30 amNNW 6.0 8.9----29.78- 50.4- 43.7---
2024-04-15 12:24 amNNW 5.1 9.9----29.77- 50.2- 43.2---
2024-04-15 12:18 amNNW 5.1 8.0----29.77- 50.2- 42.4---
2024-04-15 12:12 amNNW 6.0 8.0----29.77- 50.7- 41.9---
2024-04-15 12:06 amNNW 7.0 12.0----29.77- 51.8- 41.2---
2024-04-15 12:00 am N 8.0 14.0----29.77+0.02 55.0- 39.6---
2024-04-14 11:54 pm NW 4.1 9.9----29.76- 59.4- 39.7---
2024-04-14 11:48 pmSSW 2.9 6.0----29.75- 63.5- 39.2---
2024-04-14 11:42 pm S 4.1 5.1----29.75- 64.2- 39.2---
2024-04-14 11:36 pm S 4.1 6.0----29.74- 63.9- 39.2---
2024-04-14 11:30 pm S 4.1 7.0----29.75- 64.0- 39.6---
2024-04-14 11:24 pm S 4.1 6.0----29.75- 63.3- 39.9---
2024-04-14 11:18 pm S 4.1 5.1----29.75-------
2024-04-14 11:12 pm S 4.1 4.1----29.75- 63.3- 39.9---
2024-04-14 11:06 pmSSW 2.9 4.1----29.75- 63.5- 40.3---
2024-04-14 11:00 pm S 2.9 6.0----29.75+0.01 62.6- 41.2---
2024-04-14 10:54 pm S 4.1 5.1----29.75- 62.2- 41.9---
2024-04-14 10:48 pm S 4.1 5.1----29.75-------
2024-04-14 10:42 pm S 4.1 5.1----29.75- 62.4- 41.7---
2024-04-14 10:36 pmSSW 5.1 5.1----29.75- 62.4- 41.5---
2024-04-14 10:30 pm S 4.1 4.1----29.75- 61.9- 41.9---
2024-04-14 10:24 pm S 5.1 5.1----29.75- 61.9- 41.9---
2024-04-14 10:18 pm S 2.9 4.1----29.75- 60.8- 42.3---
2024-04-14 10:12 pm SW 1.9 1.9----29.75- 60.8- 41.9---
2024-04-14 10:06 pmSSW 1.9 1.9----29.75- 61.0- 42.4---
2024-04-14 10:00 pmSSW 1.0 1.9----29.75+0.01 60.8- 41.5---
2024-04-14 09:54 pm S 1.0 1.9----29.75- 61.2- 41.0---
2024-04-14 09:48 pm S 1.9 1.9----29.75- 61.5- 40.3---
2024-04-14 09:42 pm S 1.9 1.9----29.75- 62.1- 38.7---
2024-04-14 09:36 pm- 0.0 1.0----29.75- 62.2- 38.5---
2024-04-14 09:30 pm- 0.0 1.0----29.75- 62.8- 38.3---
2024-04-14 09:24 pm- 0.0 1.9----29.75- 63.1- 38.8---
2024-04-14 09:18 pm SE 1.9 4.1----29.74-------
2024-04-14 09:12 pmSSE 2.9 6.0----29.74- 63.7- 38.1---
2024-04-14 09:06 pm SE 4.1 6.0----29.74- 63.9- 38.8---
2024-04-14 09:00 pm SE 2.9 5.1----29.75+0.01 63.0- 40.6---
2024-04-14 08:54 pmESE 1.9 2.9----29.75- 61.5- 41.5---
2024-04-14 08:48 pm E 1.9 2.9----29.74- 61.3- 42.4---
2024-04-14 08:42 pm- 0.0 2.9----29.74- 60.3- 43.5---
2024-04-14 08:36 pm- 0.0 1.9----29.74- 59.7- 43.9---
2024-04-14 08:30 pmSSE 1.9 2.9----29.74- 60.3- 44.6---
2024-04-14 08:24 pmESE 1.9 2.9----29.74- 59.7- 45.0---
2024-04-14 08:18 pmESE 2.9 2.9----29.73-------
2024-04-14 08:12 pm E 1.9 4.1----29.73- 58.6- 45.5---
2024-04-14 08:06 pm E 2.9 4.1----29.73- 58.3- 45.5---
2024-04-14 08:00 pm E 1.9 2.9----29.73+0.00 57.9- 45.9---
2024-04-14 07:54 pm E 2.9 4.1----29.73- 58.5- 45.5---
2024-04-14 07:48 pm E 4.1 5.1----29.73-------
2024-04-14 07:42 pmESE 1.9 4.1----29.73-------
2024-04-14 07:36 pm E 1.9 4.1----29.73-------
2024-04-14 07:30 pm-------29.73- 58.3- 46.4---
2024-04-14 07:24 pm-------29.73- 57.6- 46.4---
2024-04-14 07:18 pmESE 2.9 4.1------------
2024-04-14 07:12 pmESE 2.9 5.1------ 57.6- 46.8---
2024-04-14 07:06 pm E 4.1 5.1------ 57.7- 46.6---
2024-04-14 07:00 pm E 4.1 5.1----29.73+0.01 58.1- 46.9---
2024-04-14 06:54 pm E 4.1 5.1----29.73- 58.6- 47.1---
2024-04-14 06:48 pm E 4.1 5.1----29.74- 58.8- 47.1---
2024-04-14 06:42 pmENE 2.9 5.1----29.74- 59.2- 47.7---
2024-04-14 06:36 pmENE 4.1 6.0----29.74- 59.0- 47.7---
2024-04-14 06:30 pm E 2.9 5.1----29.74- 58.5- 47.5---
2024-04-14 06:24 pm E 4.1 7.0----29.74- 58.8- 47.5---
2024-04-14 06:18 pm E 5.1 7.0----29.74- 58.6- 47.1---
2024-04-14 06:12 pm E 5.1 6.0----29.74- 58.6- 47.3---
2024-04-14 06:06 pm E 5.1 8.0----29.74- 58.1- 47.1---
2024-04-14 06:00 pm E 6.0 8.0----29.74+0.02------
2024-04-14 05:54 pm E 6.0 8.9----29.73-------
2024-04-14 05:48 pm E 6.0 9.9----29.73-------
2024-04-14 05:42 pm E 6.0 8.9----29.74- 56.8- 47.1---
2024-04-14 05:36 pm E 6.0 8.9----29.74- 56.7- 47.1---
2024-04-14 05:30 pm E 5.1 8.9----29.74- 56.5- 46.9---
2024-04-14 05:24 pm E 5.1 7.0----29.74- 56.1- 46.6---
2024-04-14 05:18 pm E 7.0 8.9----29.74- 55.8- 45.9---
2024-04-14 05:12 pm E 5.1 8.9----29.73- 55.9- 46.6---
2024-04-14 05:06 pm E 6.0 8.9----29.73- 56.1- 46.8---
2024-04-14 05:00 pmENE 7.0 8.9----29.73+0.01 55.6- 45.9---
2024-04-14 04:54 pm E 8.0 9.9----29.73- 56.7- 46.2---
2024-04-14 04:48 pm E 7.0 9.9----29.73-------
2024-04-14 04:42 pmENE 5.1 8.9----29.73-------
2024-04-14 04:36 pm NE 7.0 9.9----29.72-------
2024-04-14 04:30 pm E 5.1 8.0----29.72-------
2024-04-14 04:24 pmENE 5.1 8.9----29.72-------
2024-04-14 04:18 pm NE 8.0 9.9----29.72- 56.8- 46.9---
2024-04-14 04:12 pm NE 8.9 11.1----29.72- 56.7- 46.2---
2024-04-14 04:06 pm NE 8.0 8.9----29.72- 57.9- 46.6---
2024-04-14 04:00 pm NE 7.0 9.9----29.72+0.00 60.3- 48.6---
2024-04-14 03:54 pm NE 8.0 11.1----29.72- 59.7- 48.4---
2024-04-14 03:48 pm NE 7.0 11.1----29.72- 59.2- 47.8---
2024-04-14 03:42 pm NE 8.9 12.0----29.72- 59.7- 48.0---
2024-04-14 03:36 pm NE 7.0 9.9----29.72- 59.9- 48.0---
2024-04-14 03:30 pm NE 8.0 11.1----29.72- 60.6- 48.4---
2024-04-14 03:24 pm NE 7.0 12.0----29.72- 60.1- 46.9---
2024-04-14 03:18 pm NE 8.9 13.0----29.72- 66.0- 48.2---
2024-04-14 03:12 pmNNE 11.1 14.0----29.72- 67.1- 48.6---
2024-04-14 03:06 pmNNE 8.9 12.0----29.72- 67.1- 49.5---
2024-04-14 03:00 pmNNE 9.9 13.0----29.72+0.01 67.1- 49.8---
2024-04-14 02:54 pmNNE 8.9 12.0----29.72- 66.6- 49.8---
2024-04-14 02:48 pmNNE 11.1 13.0----29.72- 66.0- 49.5---
2024-04-14 02:42 pmNNE 9.9 13.0----29.72- 65.8- 49.3---
2024-04-14 02:36 pmNNE 8.9 13.0----29.72- 66.4- 49.3---
2024-04-14 02:30 pmNNE 11.1 13.0----29.72- 66.9- 48.7---
2024-04-14 02:24 pmNNE 9.9 12.0----29.72- 68.4- 49.5---
2024-04-14 02:18 pmNNE 8.9 12.0----29.72-------
2024-04-14 02:12 pmNNE 8.9 12.0----29.72- 68.5- 49.6---
2024-04-14 02:06 pmNNE 8.0 12.0----29.72- 68.5- 49.5---
2024-04-14 02:00 pmNNE 9.9 12.0----29.72+0.02------
2024-04-14 01:54 pmNNE 9.9 12.0----29.72-------
2024-04-14 01:48 pmNNE 8.9 12.0----29.72- 68.7- 49.1---
2024-04-14 01:42 pmNNE 8.9 12.0----29.72- 68.5- 49.3---
2024-04-14 01:36 pm N 7.0 12.0----29.72- 67.8- 49.1---
2024-04-14 01:30 pmNNE 8.9 11.1----29.72- 68.2- 48.6---
2024-04-14 01:24 pmNNE 8.0 11.1----29.72- 68.7- 49.6---
2024-04-14 01:18 pm N 7.0 8.9----29.72- 65.8- 48.7---
2024-04-14 01:12 pmNNE 7.0 11.1----29.72- 66.4- 48.2---
2024-04-14 01:06 pm N 7.0 9.9----29.72- 68.4- 48.7---
2024-04-14 01:00 pm N 8.9 11.1----29.72+0.02 69.8- 48.6---
2024-04-14 12:54 pm N 5.1 8.0----29.72- 69.8- 49.1---
2024-04-14 12:48 pm N 5.1 7.0----29.71- 70.3- 49.1---
2024-04-14 12:42 pmNNW 5.1 6.0----29.71- 72.1- 49.6---
2024-04-14 12:36 pmNNW 5.1 8.0----29.71- 72.7- 49.1---
2024-04-14 12:30 pm N 5.1 8.0----29.71- 74.1- 49.6---
2024-04-14 12:24 pmNNW 2.9 5.1----29.70- 76.5- 49.5---
2024-04-14 12:18 pmWSW 5.1 8.0----29.70- 75.9- 49.1---
2024-04-14 12:12 pm W 5.1 8.9----29.70- 76.6- 49.8---
2024-04-14 12:06 pm W 5.1 12.0----29.70- 76.6- 49.8---
2024-04-14 12:00 pmWSW 6.0 11.1----29.70+0.04 75.6- 49.1---
2024-04-14 11:54 amWSW 6.0 11.1----29.70- 75.9- 49.3---
2024-04-14 11:48 amWSW 2.9 8.0----29.70-------
2024-04-14 11:42 amWSW 8.0 13.0----29.70-------
2024-04-14 11:36 am W 7.0 11.1----29.70-------
2024-04-14 11:30 am W 5.1 12.0----29.70-------
2024-04-14 11:24 amWSW 5.1 12.0----29.70-------
2024-04-14 11:18 amWSW 8.9 12.0----29.70-------
2024-04-14 11:12 am W 8.0 15.9----29.71- 75.2- 49.3---
2024-04-14 11:06 amWSW 5.1 12.0----29.70- 75.7- 50.0---
2024-04-14 11:00 amWSW 7.0 11.1----29.70+0.02 75.6- 49.5---
2024-04-14 10:54 am W 5.1 12.0----29.70- 76.3- 50.2---
2024-04-14 10:48 am W 6.0 15.0----29.70- 75.4- 49.6---
2024-04-14 10:42 am W 5.1 11.1----29.70- 75.4- 49.3---
2024-04-14 10:36 am W 6.0 13.0----29.70- 75.6- 49.6---
2024-04-14 10:30 amWSW 7.0 12.0----29.70-------
2024-04-14 10:24 amWSW 7.0 12.0----29.69-------
2024-04-14 10:18 amWSW 8.0 15.0----29.70-------
2024-04-14 10:12 amWSW 7.0 14.0----29.70-------
2024-04-14 10:06 amWSW 9.9 15.9----29.69-------
2024-04-14 10:00 amWSW 7.0 13.0----29.69+0.02 74.3- 49.3---
2024-04-14 09:54 am W 7.0 14.0----29.69- 73.6- 49.1---
2024-04-14 09:48 amWSW 5.1 12.0----29.69-------
2024-04-14 09:42 amWSW 8.0 18.1----29.68- 72.9- 48.9---
2024-04-14 09:36 amWSW 5.1 13.0----29.68- 73.0- 49.1---
2024-04-14 09:30 am W 7.0 15.0----29.68- 72.7- 48.9---
2024-04-14 09:24 amWSW 9.9 21.0----29.67- 72.1- 48.6---
2024-04-14 09:18 amWSW 12.0 22.0----29.67-------
2024-04-14 09:12 amWSW 12.0 19.0----29.67- 72.0- 48.4---
2024-04-14 09:06 amWSW 11.1 17.1----29.67- 71.8- 48.4---
2024-04-14 09:00 am SW 11.1 19.0----29.67+0.01------
2024-04-14 08:54 amWSW 8.0 19.0----29.67-------
2024-04-14 08:48 am SW 8.0 19.0----29.67-------
2024-04-14 08:42 amWSW 14.0 22.0----29.67- 70.9- 47.8---
2024-04-14 08:36 amWSW 11.1 20.0----29.67- 70.7- 47.8---
2024-04-14 08:30 am SW 11.1 20.0----29.67-------
2024-04-14 08:24 amWSW 7.0 15.9----29.67-------
2024-04-14 08:18 am SW 8.0 18.1----29.67- 69.3- 47.8---
2024-04-14 08:12 am SW 11.1 17.1----29.68- 68.7- 47.7---
2024-04-14 08:06 am SW 8.0 20.0----29.67- 68.2- 47.7---
2024-04-14 08:00 am SW 9.9 15.9----29.68- 67.6- 47.5---
2024-04-14 07:54 am SW 8.9 18.1----29.68- 67.1- 47.5---
2024-04-14 07:48 am-------29.68- 66.6- 47.3---
2024-04-14 07:42 am-------29.68- 66.2- 47.5---
2024-04-14 07:36 am-------29.68- 65.7- 47.5---
2024-04-14 07:30 am SW 7.0 14.0----29.68-------
2024-04-14 07:24 am SW 8.0 13.0----29.67-------
2024-04-14 07:18 am SW 8.0 14.0----29.67- 64.2- 47.5---
2024-04-14 07:12 am SW 8.0 12.0----29.67- 64.0- 47.5---
2024-04-14 07:06 am SW 9.9 13.0----29.67- 63.7- 47.3---
2024-04-14 07:00 am SW 7.0 12.0----29.67+0.00------
2024-04-14 06:54 am SW 8.9 12.0----29.67-------
2024-04-14 06:48 am SW 8.0 14.0----29.67-------
2024-04-14 06:42 am SW 8.0 12.0----29.67-------
2024-04-14 06:36 am SW 8.9 15.0----29.66-------
2024-04-14 06:30 am SW 8.9 14.0----29.66- 64.0- 47.1---
2024-04-14 06:24 am SW 9.9 17.1----29.66- 64.4- 47.1---
2024-04-14 06:18 am SW 8.9 17.1----29.66-------
2024-04-14 06:12 am SW 12.0 19.0----29.66-------
2024-04-14 06:06 amSSW 8.0 12.0----29.66-------
2024-04-14 06:00 amSSW 8.9 18.1----29.65-0.03 63.7- 47.5---
2024-04-14 05:54 am SW 8.9 19.0----29.65- 64.2- 47.3---
2024-04-14 05:48 amSSW 12.0 15.9----29.65-------
2024-04-14 05:42 amSSW 9.9 17.1----29.65-------
2024-04-14 05:36 am SW 11.1 19.0----29.65-------
2024-04-14 05:30 am SW 9.9 15.0----29.65- 64.9- 47.3---
2024-04-14 05:24 am SW 11.1 19.0----29.65- 65.1- 47.7---
2024-04-14 05:18 amSSW 11.1 24.1----29.65-------
2024-04-14 05:12 amSSW 9.9 18.1----29.65- 64.0- 47.8---
2024-04-14 05:06 amSSW 11.1 19.0----29.65- 63.7- 48.0---
2024-04-14 05:00 amSSW 9.9 15.0------ 63.7- 48.4---
2024-04-14 04:54 amSSW 11.1 18.1------ 63.3- 48.6---
2024-04-14 04:48 amSSW 11.1 18.1------ 62.8- 48.7---
2024-04-14 04:42 amSSW 11.1 21.0------ 62.6- 48.6---
2024-04-14 04:36 amSSW 11.1 15.0------ 62.2- 48.7---
2024-04-14 04:30 amSSW 12.0 15.9----29.67-------
2024-04-14 04:24 amSSW 11.1 15.9----29.67-------
2024-04-14 04:18 amSSW 8.9 17.1----29.67- 62.1- 48.9---
2024-04-14 04:12 amSSW 9.9 17.1----29.67- 62.2- 49.3---
2024-04-14 04:06 amSSW 8.9 12.0----29.67- 61.3- 48.9---
2024-04-14 04:00 am S 9.9 14.0----29.67-0.06 61.5- 48.9---
2024-04-14 03:54 amSSW 9.9 15.0----29.68- 61.5- 48.9---
2024-04-14 03:48 amSSW 8.9 15.0----29.68-------
2024-04-14 03:42 am S 11.1 15.0----29.68- 61.5- 48.7---
2024-04-14 03:36 amSSW 11.1 15.9----29.68- 61.5- 48.6---
2024-04-14 03:30 amSSW 11.1 15.0----29.68- 61.5- 48.6---
2024-04-14 03:24 amSSW 9.9 15.9----29.68- 61.3- 48.2---
2024-04-14 03:18 amSSW 12.0 15.0----29.68-------
2024-04-14 03:12 amSSW 11.1 17.1----29.68- 61.5- 48.0---
2024-04-14 03:06 amSSW 12.0 15.9----29.69- 61.9- 47.8---
2024-04-14 03:00 amSSW 12.0 21.0----29.69-0.09 61.9- 47.7---
2024-04-14 02:54 amSSW 14.0 20.0----29.69- 62.2- 47.7---
2024-04-14 02:48 amSSW 12.0 20.0----29.70- 62.1- 47.3---
2024-04-14 02:42 amSSW 13.0 18.1----29.70- 62.4- 47.5---
2024-04-14 02:36 amSSW 12.0 19.0----29.70- 62.4- 47.1---
2024-04-14 02:30 amSSW 11.1 15.0----29.70- 62.4- 46.9---
2024-04-14 02:24 amSSW 12.0 15.0----29.70- 62.6- 46.8---
2024-04-14 02:18 amSSW 12.0 18.1----29.71- 62.8- 46.8---
2024-04-14 02:12 amSSW 14.0 19.0----29.71- 63.0- 46.6---
2024-04-14 02:06 amSSW 12.0 20.0----29.71- 63.0- 46.4---
2024-04-14 02:00 amSSW 15.0 19.0----29.71-0.08 63.0- 46.0---
2024-04-14 01:54 am S 12.0 19.0----29.71- 62.8- 45.9---
2024-04-14 01:48 am S 13.0 21.0----29.71-------
2024-04-14 01:42 am S 14.0 20.0----29.72- 63.0- 45.3---
2024-04-14 01:36 am S 14.0 19.0----29.72- 63.1- 45.3---
2024-04-14 01:30 amSSW 12.0 17.1----29.73- 62.6- 45.0---
2024-04-14 01:24 am S 12.0 17.1----29.73- 62.8- 44.8---
2024-04-14 01:18 am S 12.0 18.1----29.74-------
2024-04-14 01:12 am S 12.0 17.1----29.74- 62.4- 44.4---
2024-04-14 01:06 am S 12.0 20.0----29.74- 62.6- 44.4---
2024-04-14 01:00 am S 12.0 18.1----29.74-0.08 62.6- 44.2---
2024-04-14 12:54 am S 12.0 18.1----29.75- 62.4- 44.1---